Location: Berduj
(43.0019°N, 22.3781°E)
Time: 13:11:54
(UTC+00:00)

Cosmos 1953 Rocket - Pass Details

Date: 19 October 2019
Orbit: 603 x 636 km, 82.5° (Epoch: 12 November)

Event Time Altitude Azimuth Distance (km) Brightness Sun altitude
Rises 16:23:09 0° 350° (N) 2,892 7.1 -8.2°
Reaches altitude 10° 16:25:23 10° 349° (N) 1,977 6.2 -8.6°
Maximum altitude 16:29:45 78° 265° (W) 627 3.7 -9.4°
Drops below altitude 10° 16:34:04 10° 178° (S) 1,947 6.2 -10.2°
Sets 16:36:15 0° 177° (S) 2,843 7.0 -10.6°
